DW8151 Weather Reports


Display with metric or nautical units.
time (UTC)temp
F
wind
direction
speed
MPH
gust
MPH
rain 1hr
in
rain 24hr
in
rain mn
in
humidity
%
barometer
mb
20260507133119 51 22 1.0 0.0 0.00 0.00 0.00 70 1017.3
20260507130152 51 360 2.0 0.0 0.00 0.00 0.00 69 1017.3
20260507123131 52 10 1.0 0.0 0.00 0.00 0.00 70 1017.4
20260507120132 52 10 2.0 0.0 0.00 0.00 0.00 69 1017.6
20260507113142 53 299 1.0 0.0 0.00 0.00 0.00 69 1017.6
20260507110140 53 333 1.0 0.0 0.00 0.00 0.00 69 1017.7
20260507103153 53 284 1.0 0.0 0.00 0.00 0.00 69 1017.8
20260507100120 54 13 1.0 0.0 0.00 0.00 0.00 69 1018.0
20260507093128 54 30 2.0 0.0 0.00 0.00 0.00 69 1018.2
20260507090120 54 348 2.0 0.0 0.00 0.00 0.00 70 1018.3
20260507083123 55 16 1.0 0.0 0.00 0.00 0.00 70 1018.3
20260507080114 55 350 1.0 0.0 0.00 0.00 0.00 71 1018.3
20260507073121 55 351 2.0 0.0 0.00 0.00 0.00 72 1018.2
20260507070120 55 313 2.0 0.0 0.00 0.00 0.00 71 1018.2
20260507063125 55 284 2.0 0.0 0.00 0.00 0.00 72 1018.3
20260507060142 55 347 2.0 0.0 0.00 0.00 0.00 72 1018.3
20260507053126 56 28 2.0 0.0 0.00 0.00 0.00 69 1018.2
20260507050113 57 348 4.0 0.0 0.00 0.00 0.00 68 1018.3
20260507043114 57 323 4.0 0.0 0.00 0.00 0.00 68 1018.0
20260507040127 58 327 4.0 0.0 0.00 0.00 0.00 68 1017.7
20260507033114 59 312 2.0 0.0 0.00 0.00 0.00 68 1017.2
20260507030118 60 360 2.0 0.0 0.00 0.00 0.00 66 1016.9
20260507023126 62 313 3.0 0.0 0.00 0.00 0.00 63 1016.8
20260507020125 64 300 4.0 0.0 0.00 0.00 0.00 61 1016.9
20260507013129 65 25 4.0 0.0 0.00 0.00 0.00 60 1016.8
20260507010115 66 327 2.0 0.0 0.00 0.00 0.00 63 1016.7
20260507003120 66 5 3.0 0.0 0.00 0.00 0.00 63 1016.7
20260507000131 67 27 4.0 0.0 0.00 0.00 0.00 60 1016.7
20260506233142 67 56 3.0 0.0 0.00 0.00 0.00 60 1016.7
20260506230131 67 42 2.0 0.0 0.00 0.00 0.00 57 1016.9
20260506223151 67 316 2.0 0.0 0.00 0.00 0.00 58 1017.3
20260506220122 68 218 1.0 0.0 0.00 0.00 0.00 58 1017.3
20260506213150 66 302 1.0 0.0 0.00 0.00 0.00 62 1017.7
20260506210113 63 360 2.0 0.0 0.00 0.00 0.00 67 1017.8
20260506203122 62 10 2.0 0.0 0.00 0.00 0.00 69 1017.7
20260506200200 62 40 2.0 0.0 0.00 0.00 0.00 69 1017.9
20260506193114 61 34 2.0 0.0 0.00 0.00 0.00 70 1017.9
20260506190126 61 265 1.0 0.0 0.00 0.00 0.00 70 1017.8
20260506183127 60 5 2.0 0.0 0.00 0.00 0.00 72 1017.8
20260506180117 59 5 2.0 0.0 0.00 0.00 0.00 72 1017.8
20260506173121 59 311 0.0 0.0 0.00 0.00 0.00 73 1017.7
20260506170134 59 350 2.0 0.0 0.00 0.00 0.00 74 1017.5
20260506163136 58 342 1.0 0.0 0.00 0.00 0.00 73 1017.3
20260506160119 57 128 0.0 0.0 0.00 0.00 0.00 77 1016.8
20260506153116 56 24 1.0 0.0 0.00 0.00 0.00 78 1017.6
20260506150116 56 355 2.0 0.0 0.00 0.00 0.00 79 1017.2
20260506143122 57 17 1.0 0.0 0.00 0.00 0.00 79 1016.7
20260506140116 57 338 0.0 0.0 0.00 0.00 0.00 79 1016.6